[[{"header":{"parameterUnit":"m.s-1","parameterCategory":1,"la1":30.2991,"la2":30.254,"lo1":-89.0895,"lo2":-89.0444,"dy":0.0017,"dx":0.0017,"nx":28,"ny":28,"refTime":"2025-11-21T09:00:00:Z","depth":0,"parameterNumber":2,"parameterNumberName":"U-component_of_WINDS"},"data":[0,0,0,0,0,0,0,0,0,0,0,0,0,0,0,0,0,0,0,0,0,0,0,0,0,0,0,0,0,0,0,0,0,0,0,0,0,0,0,0,0,0,0,0,0,0,0,0,0,0,0,0,0,0,0,0,0,0,1.9691,1.9693,0,1.9813,1.9814,1.9816,1.98,1.9798,1.9796,1.9794,1.9923,1.9928,1.9933,0,0,0,0,0,0,0,0,0,0,0,0,0,1.945,1.9454,1.9691,1.9693,1.9694,1.9813,1.9814,1.9816,1.98,1.9798,1.9795,1.9793,1.9921,1.9927,1.9933,0,0,0,0,0,0,0,0,0,0,0,0,0,1.9562,1.9456,1.9691,1.9701,1.9703,1.9812,1.9815,1.9817,1.9801,1.9798,1.9795,1.9792,1.9919,1.9927,1.9934,2.0044,0,0,1.9959,1.9962,0,0,0,0,0,0,0,0,1.9555,1.9571,1.9698,1.97,1.9703,1.9788,1.9776,1.9893,1.9801,1.9764,1.9794,1.979,1.9881,1.9891,1.9921,2.005,2.0055,1.9959,1.9964,1.9968,1.997,0,0,0,0,0,0,0,1.9548,1.9565,1.974,1.97,1.9703,1.97,1.9713,1.9799,1.9838,1.9767,1.9766,1.978,1.9881,1.9913,1.9924,2.0057,1.9959,1.9966,1.9971,1.9974,2.0283,2.0287,0,0,0,0,0,0,1.9537,1.9559,1.9736,1.9743,1.962,1.9707,1.9721,1.9764,1.9837,1.9845,1.9783,1.9779,1.9901,1.9915,1.9928,2.0062,1.9968,1.9975,1.998,2.028,2.0284,2.0288,0,0,0,0,0,0,1.9532,1.9553,1.9731,1.9651,1.9673,1.9714,1.9763,1.9768,1.98,1.9849,1.9856,1.9808,1.9899,1.9917,2.0015,2.0066,1.9979,1.9986,2.0276,2.0281,2.0286,2.0329,0,0,0,0,0,0,1.9525,1.9551,1.9592,1.9652,1.9678,1.9814,1.9766,1.9772,1.9813,1.9809,1.9874,1.9882,1.9898,2.0003,2.0023,2.0076,1.9992,2.0271,2.0278,2.0284,2.0324,2.0335,2.0346,0,0,0,0,0,1.9516,1.96,1.9594,1.9615,1.9729,1.9817,1.9832,1.9848,1.9817,1.9859,1.9891,1.988,2.0057,2.0014,2.0036,2.0091,2.0268,2.0276,2.0284,2.0319,2.0333,2.0345,0,0,0,0,0,0,1.9546,1.9608,1.9602,1.9707,1.9757,1.9814,1.9868,1.9862,1.9923,1.9917,1.9936,1.9951,2.005,2.008,2.003,2.0202,2.0159,2.0171,2.0178,2.0192,2.0203,2.0193,1.9999,0,0,0,0,0,1.9564,1.9629,1.968,1.9768,1.9793,1.9826,1.9865,1.9873,1.9926,1.9947,1.9986,2.0039,2.0107,2.0151,2.0216,2.0328,2.0343,2.0377,2.0388,2.0397,2.0408,2.047,2.0487,2.0313,2.0313,2.0313,0,0,1.9603,1.9645,1.9685,1.9775,1.9815,1.9883,1.9844,1.9918,1.9969,1.9959,2.0053,2.0084,2.0145,2.025,2.0299,2.0279,2.0459,2.0407,2.0413,2.042,2.048,2.0496,2.0511,2.0318,2.0318,2.0317,0,0,1.971,1.9747,1.9825,1.9865,1.9925,1.9947,1.9966,2.0025,2.0044,2.0139,2.0133,2.0195,2.0311,2.0355,2.0392,2.0517,2.0509,2.0537,2.0595,2.0656,2.0669,2.0682,2.0727,2.0743,2.0548,2.0548,2.0548,0,1.9751,1.9852,1.9866,1.9941,1.9981,1.9974,2.0054,2.0093,2.0172,2.0201,2.0177,2.0323,2.0363,2.0479,2.051,2.054,2.0563,2.053,2.0666,2.0678,2.069,2.0733,2.075,2.0551,2.0551,2.055,2.055,0,1.9901,1.9971,2.0027,2.0102,2.0149,2.0226,2.0253,2.0299,2.0303,2.0328,2.0426,2.0474,2.0549,2.0577,2.0582,2.0695,2.0681,2.0661,2.0619,2.0709,2.075,2.0767,2.0555,2.0554,2.0553,2.0553,0,0,2.0028,2.011,2.0131,2.0165,2.0231,2.0287,2.0364,2.0437,2.0476,2.0531,2.0598,2.0696,2.0679,2.0722,2.0732,2.0785,2.0882,2.076,2.0762,2.0781,2.101,2.1024,2.1043,2.0877,2.0881,2.0883,2.1005,0,2.0141,2.0276,2.0292,2.0413,2.0479,2.0474,2.0542,2.0591,2.0616,2.0677,2.0706,2.0776,2.0747,2.0773,2.0826,2.0859,2.0928,2.085,2.0941,2.0944,2.0926,2.1064,2.1079,2.1192,2.1021,2.1024,2.1026,0,2.0291,2.0349,2.0476,2.0534,2.0563,2.0623,2.0691,2.0749,2.0805,2.082,2.0868,2.0872,2.0954,2.0908,2.1022,2.0968,2.1006,2.1029,2.1033,2.1042,2.099,2.1078,2.1228,2.1245,2.1051,2.1049,2.1047,0,2.0372,2.0482,2.0573,2.0602,2.0672,2.0715,2.0746,2.0799,2.0842,2.0902,2.0931,2.1,2.1038,2.1093,2.1116,2.108,2.1229,2.1185,2.1245,2.1244,2.1276,2.1274,2.1435,2.13,2.13,2.13,2.13,0,2.0496,2.0574,2.061,2.0666,2.0754,2.0772,2.0859,2.0889,2.0937,2.1,2.1,2.106,2.1086,2.115,2.1169,2.1261,2.1279,2.1294,2.1298,2.1294,2.1292,2.1319,2.1312,2.1304,2.1303,2.1303,2.1302,0,2.0601,2.0628,2.0726,2.0785,2.0801,2.0864,2.0914,2.0969,2.0994,2.1074,2.1094,2.1134,2.1209,2.1238,2.133,2.1343,2.1449,2.1447,2.143,2.1431,2.1489,2.1484,2.1674,2.17,2.1548,2.1549,2.1551,0,2.0679,2.0739,2.0803,2.0845,2.0877,2.0944,2.0988,2.1009,2.1054,2.1124,2.1171,2.1246,2.1306,2.1428,2.1466,2.1537,2.1537,2.1599,2.1547,2.1542,2.1538,2.1534,2.1541,2.1608,2.161,2.1611,2.1612,0,2.0814,2.0824,2.0886,2.0954,2.1006,2.106,2.1113,2.1147,2.1176,2.1228,2.1305,2.1352,2.1446,2.1521,2.1594,2.1628,2.1626,2.1628,2.1645,2.1642,2.1629,2.1637,2.1456,2.1623,2.1622,2.1621,2.1621,2.162,2.0908,2.0961,2.1015,2.1085,2.1127,2.1176,2.1231,2.1263,2.1327,2.1404,2.1413,2.1496,2.1552,2.165,2.1687,2.1753,2.1737,2.1762,2.1769,2.1775,2.1779,2.1619,2.1767,2.1766,2.1766,2.1766,2.1766,0,2.1043,2.1078,2.1142,2.1215,2.1271,2.1262,2.1321,2.1368,2.144,2.1492,2.1552,2.1641,2.1714,2.1758,2.1832,2.1876,2.1877,2.1895,2.1892,2.19,2.1789,2.1767,2.1893,2.1893,2.1893,2.1893,2.1893,2.1893,2.112,2.121,2.1228,2.1339,2.1374,2.1454,2.1488,2.1535,2.1576,2.1675,2.1735,2.1763,2.1813,2.189,2.1957,2.1969,2.1996,2.2015,2.2026,2.1921,2.1908,2.1895,2.1874,2.2021,2.2021,2.2131,2.2132,2.2133]},{"header":{"parameterUnit":"m.s-1","parameterCategory":1,"la1":30.2991,"la2":30.254,"lo1":-89.0895,"lo2":-89.0444,"dy":0.0017,"dx":0.0017,"nx":28,"ny":28,"refTime":"2025-11-21T09:00:00:Z","depth":0,"parameterNumber":3,"parameterNumberName":"V-component_of_WINDS"},"data":[0,0,0,0,0,0,0,0,0,0,0,0,0,0,0,0,0,0,0,0,0,0,0,0,0,0,0,0,0,0,0,0,0,0,0,0,0,0,0,0,0,0,0,0,0,0,0,0,0,0,0,0,0,0,0,0,0,0,1.8808,1.8809,0,1.8887,1.8887,1.8888,1.8896,1.8895,1.8894,1.8893,1.8972,1.8975,1.8978,0,0,0,0,0,0,0,0,0,0,0,0,0,1.8663,1.8666,1.8808,1.8809,1.881,1.8886,1.8888,1.8889,1.8896,1.8895,1.8894,1.8893,1.8971,1.8975,1.8978,0,0,0,0,0,0,0,0,0,0,0,0,0,1.8732,1.8667,1.8808,1.8823,1.8825,1.8886,1.8888,1.8889,1.8896,1.8895,1.8894,1.8893,1.897,1.8974,1.8979,1.903,0,0,1.8992,1.8994,0,0,0,0,0,0,0,0,1.8729,1.8738,1.882,1.8822,1.8824,1.888,1.8865,1.8936,1.8897,1.8869,1.8893,1.8892,1.8942,1.8949,1.8966,1.9033,1.9037,1.8992,1.8995,1.8996,1.8998,0,0,0,0,0,0,0,1.8724,1.8734,1.8839,1.8821,1.8824,1.8825,1.8834,1.8879,1.8912,1.8871,1.8872,1.8881,1.8944,1.8962,1.8968,1.9038,1.8992,1.8996,1.8998,1.9,1.9152,1.9153,0,0,0,0,0,0,1.8716,1.873,1.8836,1.8841,1.8773,1.8829,1.8839,1.8864,1.8911,1.8917,1.8882,1.8882,1.8955,1.8963,1.8971,1.9035,1.8996,1.9,1.9003,1.915,1.9152,1.9153,0,0,0,0,0,0,1.8713,1.8726,1.8833,1.8786,1.88,1.8833,1.8861,1.8866,1.8884,1.892,1.8925,1.8896,1.8955,1.8965,1.9015,1.9038,1.9002,1.9006,1.9148,1.9151,1.9153,1.9162,0,0,0,0,0,0,1.8709,1.8725,1.8744,1.8787,1.8802,1.8877,1.8862,1.8868,1.8892,1.8892,1.8933,1.8939,1.8955,1.9009,1.902,1.9043,1.901,1.9147,1.9149,1.9152,1.916,1.9165,1.9168,0,0,0,0,0,1.8704,1.8743,1.8745,1.8758,1.8828,1.8878,1.8887,1.8905,1.8894,1.8914,1.8937,1.8938,1.9033,1.9014,1.9026,1.9051,1.9145,1.9149,1.9152,1.9158,1.9164,1.9168,0,0,0,0,0,0,1.8702,1.8749,1.8752,1.8806,1.8838,1.8879,1.8905,1.8909,1.8945,1.8943,1.8962,1.8972,1.9022,1.9041,1.9019,1.9103,1.9088,1.9094,1.9089,1.9094,1.9098,1.9093,1.9013,0,0,0,0,0,1.8708,1.8745,1.8784,1.8828,1.8844,1.8872,1.8894,1.8905,1.8939,1.8952,1.8978,1.901,1.9048,1.9072,1.9108,1.9163,1.9172,1.9186,1.919,1.9193,1.9198,1.9229,1.9236,1.9164,1.9164,1.9164,0,0,1.8721,1.8751,1.8773,1.8828,1.8854,1.8892,1.8883,1.8923,1.8951,1.8958,1.9008,1.9028,1.9065,1.9118,1.9143,1.9136,1.922,1.9197,1.92,1.9203,1.9234,1.924,1.9246,1.9166,1.9166,1.9166,0,0,1.8763,1.8789,1.883,1.8856,1.8896,1.8915,1.8924,1.8965,1.8979,1.903,1.9036,1.9069,1.9133,1.916,1.9181,1.9235,1.9238,1.9246,1.9268,1.9298,1.9304,1.9309,1.9329,1.9336,1.9251,1.9251,1.9251,0,1.8774,1.8831,1.885,1.889,1.8915,1.8923,1.8965,1.8989,1.9039,1.9055,1.9047,1.9128,1.9154,1.9214,1.9227,1.9244,1.9256,1.9242,1.9302,1.9307,1.9312,1.9331,1.9339,1.9252,1.9252,1.9252,1.9252,0,1.8843,1.8883,1.891,1.8959,1.8987,1.9027,1.9052,1.9077,1.9086,1.9105,1.9157,1.9188,1.9231,1.9246,1.9254,1.9308,1.9302,1.9298,1.9283,1.932,1.9338,1.9346,1.9253,1.9253,1.9253,1.9252,0,0,1.8886,1.8945,1.8955,1.8978,1.9023,1.9054,1.9095,1.9138,1.916,1.9194,1.923,1.9284,1.928,1.9305,1.9317,1.9343,1.9385,1.9335,1.9337,1.9344,1.9446,1.945,1.9458,1.9387,1.9388,1.9389,1.9444,0,1.8934,1.9008,1.9027,1.909,1.9128,1.9137,1.9173,1.9204,1.9223,1.9258,1.9279,1.9317,1.9309,1.9325,1.9351,1.9374,1.9406,1.937,1.942,1.9421,1.9411,1.9468,1.9472,1.9522,1.9451,1.9452,1.9453,0,1.9,1.9037,1.9104,1.9146,1.9162,1.9194,1.9236,1.9269,1.9305,1.9317,1.9345,1.9355,1.9398,1.938,1.944,1.9416,1.9437,1.9452,1.9454,1.946,1.944,1.9476,1.9538,1.9545,1.9464,1.9463,1.9463,0,1.9026,1.9092,1.9142,1.9161,1.921,1.9232,1.9254,1.9289,1.9314,1.935,1.9367,1.9407,1.9429,1.946,1.948,1.9465,1.9539,1.9523,1.955,1.955,1.9566,1.9564,1.9632,1.9578,1.9578,1.9578,1.9578,0,1.9079,1.912,1.9154,1.9184,1.9231,1.9252,1.9297,1.9318,1.935,1.9384,1.9394,1.9426,1.945,1.9486,1.9501,1.9549,1.9559,1.957,1.9574,1.9569,1.9568,1.9584,1.9581,1.958,1.9579,1.9579,1.9578,0,1.9115,1.914,1.9195,1.9237,1.9249,1.9281,1.9318,1.9348,1.9367,1.9411,1.9423,1.9454,1.9496,1.9519,1.9571,1.9582,1.9636,1.9637,1.9624,1.9626,1.9652,1.965,1.9733,1.9746,1.9682,1.9683,1.9683,0,1.9148,1.918,1.9226,1.9251,1.9273,1.9312,1.9338,1.936,1.9386,1.9431,1.9455,1.9498,1.9534,1.9602,1.9628,1.9669,1.9672,1.9698,1.9678,1.9673,1.9673,1.9672,1.9675,1.9702,1.9703,1.9703,1.9703,0,1.9202,1.9213,1.9251,1.9293,1.9325,1.9359,1.9393,1.9412,1.9439,1.9469,1.9513,1.9541,1.9595,1.9638,1.9681,1.9703,1.9708,1.971,1.9718,1.9715,1.9706,1.9712,1.9635,1.9708,1.9707,1.9707,1.9707,1.9707,1.9238,1.9268,1.9306,1.9348,1.9376,1.9407,1.9438,1.9462,1.95,1.9547,1.9557,1.9604,1.9639,1.9698,1.9721,1.9758,1.9752,1.9765,1.9768,1.9771,1.9772,1.97,1.9765,1.9765,1.9765,1.9765,1.9765,0,1.9294,1.9319,1.9358,1.9406,1.9439,1.9442,1.9479,1.9507,1.9548,1.9582,1.9617,1.9668,1.971,1.9741,1.9784,1.9807,1.9811,1.9818,1.9817,1.9822,1.9774,1.9763,1.9814,1.9814,1.9814,1.9814,1.9814,1.9814,1.9327,1.9378,1.9393,1.9458,1.9483,1.9529,1.9551,1.958,1.9607,1.9664,1.97,1.972,1.9752,1.9798,1.9836,1.9844,1.986,1.9867,1.9875,1.983,1.9825,1.982,1.9809,1.987,1.987,1.992,1.992,1.992]}]]